Portada
METAR-TAF:

METAR-TAF

Aeroports :

Faith Municipal Airport

Faith, Dakota del Sud, Estats Units d'Amèrica

latitud: 45-01-55N, longitud: 102-01-09W, altitud: 787 m

Observació

L'informe es va fer fa 53 minuts, a les 00:56 UTC
Vent 8 kt del Sud/Sud-Est
Temperatura -10°C
Humitat 79%
Pressió 1034 hPa

METAR: KD07 200056Z AUTO 15008KT M10/M13 A3053 RMK AO1 SLP402 T11001133

Hora: 18:49 (01:49 UTC)


TAF: manca

Observacions i pronòstics meteorològics de més de 4000 aeroports (METAR i TAF).

Les estacions disponibles són els punts grocs i vermells al mapa.

Posi el ratolí al punt desitjat per veure el nom de l'estació.

Feu clic per veure les observacions i els pronòstics meteorològics.

Per canviar el mapa: feu clic els botons verds amb una creu de color negre per apropar; al botó verd amb un guió per allunyar la imatge; o en les fletxes verdes per a mapes adjacents.


METAR-TAF: